Time,TemperatureF,DewpointF,PressureIn,WindDirection,WindDirectionDegrees,WindSpeedMPH,WindSpeedGustMPH,Humidity,HourlyPrecipIn,Conditions,Clouds,dailyrainin,SoftwareType,DateUTC
2013-07-26 00:08:00,67.5,66.9,29.92,NNE,22,4.2,-999.0,98,-99.99,,,0.00,Acu-Link.com,2013-07-26 04:08:00,
2013-07-26 00:23:00,67.3,66.7,29.92,NNW,337,3.2,-999.0,98,-99.99,,,0.00,Acu-Link.com,2013-07-26 04:23:00,
2013-07-26 00:38:00,67.1,66.5,29.92,South,180,2.7,-999.0,98,-99.99,,,0.00,Acu-Link.com,2013-07-26 04:38:00,
2013-07-26 00:54:00,67.1,66.5,29.93,North,0,4.2,-999.0,98,-99.99,,,0.00,Acu-Link.com,2013-07-26 04:54:00,
2013-07-26 01:09:00,66.9,66.3,29.92,WSW,247,2.7,-999.0,98,-99.99,,,0.00,Acu-Link.com,2013-07-26 05:09:00,
2013-07-26 01:24:00,66.9,66.3,29.92,NNW,337,3.7,-999.0,98,-99.99,,,0.00,Acu-Link.com,2013-07-26 05:24:00,
2013-07-26 01:39:00,66.9,66.3,29.92,ESE,112,2.7,-999.0,98,-99.99,,,0.00,Acu-Link.com,2013-07-26 05:39:00,
2013-07-26 01:54:00,67.1,66.5,29.92,West,270,3.7,-999.0,98,-99.99,,,0.00,Acu-Link.com,2013-07-26 05:54:00,
2013-07-26 02:09:00,67.5,66.9,29.92,NNW,337,4.2,-999.0,98,-99.99,,,0.00,Acu-Link.com,2013-07-26 06:09:00,
2013-07-26 02:24:00,67.6,67.0,29.91,NNE,22,3.2,-999.0,98,-99.99,,,0.00,Acu-Link.com,2013-07-26 06:24:00,
2013-07-26 02:39:00,67.6,67.0,29.92,North,0,2.7,-999.0,98,-99.99,,,0.00,Acu-Link.com,2013-07-26 06:39:00,
2013-07-26 02:54:00,67.6,67.0,29.91,WNW,292,2.7,-999.0,98,-99.99,,,0.00,Acu-Link.com,2013-07-26 06:54:00,
2013-07-26 03:10:00,67.6,67.0,29.92,NNE,22,2.7,-999.0,98,-99.99,,,0.00,Acu-Link.com,2013-07-26 07:10:00,
2013-07-26 03:25:00,67.6,67.0,29.91,WNW,292,4.7,-999.0,98,-99.99,,,0.00,Acu-Link.com,2013-07-26 07:25:00,
2013-07-26 03:40:00,67.6,67.0,29.92,South,180,5.8,-999.0,98,-99.99,,,0.00,Acu-Link.com,2013-07-26 07:40:00,
2013-07-26 03:55:00,67.6,67.0,29.92,NNE,22,3.2,-999.0,98,-99.99,,,0.00,Acu-Link.com,2013-07-26 07:55:00,
2013-07-26 04:10:00,67.5,66.9,29.93,WSW,247,4.2,-999.0,98,-99.99,,,0.00,Acu-Link.com,2013-07-26 08:10:00,
2013-07-26 04:25:00,67.5,66.9,29.93,North,0,3.2,-999.0,98,-99.99,,,0.00,Acu-Link.com,2013-07-26 08:25:00,
2013-07-26 04:40:00,67.5,66.9,29.93,SSW,202,4.7,-999.0,98,-99.99,,,0.00,Acu-Link.com,2013-07-26 08:40:00,
2013-07-26 04:55:00,67.6,67.0,29.93,East,90,4.2,-999.0,98,-99.99,,,0.00,Acu-Link.com,2013-07-26 08:55:00,
2013-07-26 05:10:00,67.8,67.2,29.93,West,270,6.8,-999.0,98,-99.99,,,0.00,Acu-Link.com,2013-07-26 09:10:00,
2013-07-26 05:26:00,67.8,67.2,29.93,NNE,22,3.7,-999.0,98,-99.99,,,0.00,Acu-Link.com,2013-07-26 09:26:00,
2013-07-26 05:41:00,67.8,67.2,29.94,West,270,2.7,-999.0,98,-99.99,,,0.00,Acu-Link.com,2013-07-26 09:41:00,
2013-07-26 05:56:00,68.0,67.4,29.94,NNE,22,5.3,-999.0,98,-99.99,,,0.00,Acu-Link.com,2013-07-26 09:56:00,
2013-07-26 06:11:00,68.0,67.4,29.94,WSW,247,5.8,-999.0,98,-99.99,,,0.00,Acu-Link.com,2013-07-26 10:11:00,
2013-07-26 06:26:00,68.4,67.8,29.94,NNW,337,3.2,-999.0,98,-99.99,,,0.00,Acu-Link.com,2013-07-26 10:26:00,
2013-07-26 06:41:00,68.5,67.9,29.95,NNW,337,4.7,-999.0,98,-99.99,,,0.00,Acu-Link.com,2013-07-26 10:41:00,
2013-07-26 06:56:00,68.9,68.3,29.95,East,90,3.2,-999.0,98,-99.99,,,0.00,Acu-Link.com,2013-07-26 10:56:00,
2013-07-26 07:26:00,70.0,69.4,29.95,North,0,2.2,-999.0,98,-99.99,,,0.00,Acu-Link.com,2013-07-26 11:26:00,
2013-07-26 07:42:00,70.9,70.3,29.96,SE,135,1.1,-999.0,98,-99.99,,,0.00,Acu-Link.com,2013-07-26 11:42:00,
2013-07-26 07:57:00,70.7,70.1,29.96,NW,315,2.7,-999.0,98,-99.99,,,0.00,Acu-Link.com,2013-07-26 11:57:00,
2013-07-26 08:12:00,70.0,69.4,29.98,WNW,292,3.2,-999.0,98,-99.99,,,0.00,Acu-Link.com,2013-07-26 12:12:00,
2013-07-26 08:27:00,70.0,69.4,29.98,WNW,292,2.7,-999.0,98,-99.99,,,0.00,Acu-Link.com,2013-07-26 12:27:00,
2013-07-26 08:42:00,70.2,69.6,29.98,SSW,202,2.2,-999.0,98,-99.99,,,0.00,Acu-Link.com,2013-07-26 12:42:00,
2013-07-26 08:57:00,71.2,70.6,29.98,North,0,4.7,-999.0,98,-99.99,,,0.00,Acu-Link.com,2013-07-26 12:57:00,
2013-07-26 09:12:00,74.3,73.7,29.99,East,90,2.7,-999.0,98,-99.99,,,0.00,Acu-Link.com,2013-07-26 13:12:00,
2013-07-26 09:28:00,74.5,73.9,29.98,SSE,157,4.2,-999.0,98,-99.99,,,0.00,Acu-Link.com,2013-07-26 13:28:00,
2013-07-26 09:43:00,74.8,74.2,29.99,NNE,22,3.2,-999.0,98,-99.99,,,0.00,Acu-Link.com,2013-07-26 13:43:00,
2013-07-26 09:58:00,77.7,77.1,29.98,NNW,337,3.7,-999.0,98,-99.99,,,0.00,Acu-Link.com,2013-07-26 13:58:00,
2013-07-26 10:13:00,78.6,73.7,29.99,West,270,4.7,-999.0,85,-99.99,,,0.00,Acu-Link.com,2013-07-26 14:13:00,
2013-07-26 10:28:00,79.3,73.3,29.99,WSW,247,4.7,-999.0,82,-99.99,,,0.00,Acu-Link.com,2013-07-26 14:28:00,
2013-07-26 10:43:00,80.8,74.8,29.98,WNW,292,2.7,-999.0,82,-99.99,,,0.00,Acu-Link.com,2013-07-26 14:43:00,
2013-07-26 10:58:00,79.2,74.3,29.99,NNE,22,3.2,-999.0,85,-99.99,,,0.00,Acu-Link.com,2013-07-26 14:58:00,
2013-07-26 11:13:00,82.2,76.1,29.99,NNE,22,2.7,-999.0,82,-99.99,,,0.00,Acu-Link.com,2013-07-26 15:13:00,
2013-07-26 11:28:00,82.8,74.0,29.99,East,90,4.7,-999.0,75,-99.99,,,0.00,Acu-Link.com,2013-07-26 15:28:00,
2013-07-26 11:44:00,82.8,76.4,29.99,WNW,292,2.7,-999.0,81,-99.99,,,0.00,Acu-Link.com,2013-07-26 15:44:00,
2013-07-26 11:59:00,82.4,75.6,29.98,ENE,67,2.2,-999.0,80,-99.99,,,0.00,Acu-Link.com,2013-07-26 15:59:00,
2013-07-26 12:14:00,82.8,76.0,29.99,WSW,247,3.2,-999.0,80,-99.99,,,0.00,Acu-Link.com,2013-07-26 16:14:00,
2013-07-26 12:29:00,82.8,77.1,29.98,East,90,2.7,-999.0,83,-99.99,,,0.00,Acu-Link.com,2013-07-26 16:29:00,
2013-07-26 12:44:00,82.4,79.8,29.99,NNE,22,3.7,-999.0,92,-99.99,,,0.00,Acu-Link.com,2013-07-26 16:44:00,
2013-07-26 12:59:00,83.8,77.0,29.98,ESE,112,2.2,-999.0,80,-99.99,,,0.00,Acu-Link.com,2013-07-26 16:59:00,
2013-07-26 13:14:00,84.2,75.8,29.97,North,0,2.2,-999.0,76,-99.99,,,0.00,Acu-Link.com,2013-07-26 17:14:00,
2013-07-26 13:29:00,83.8,76.6,29.97,North,0,3.2,-999.0,79,-99.99,,,0.00,Acu-Link.com,2013-07-26 17:29:00,
2013-07-26 13:44:00,83.1,76.6,29.97,ESE,112,2.7,-999.0,81,-99.99,,,0.00,Acu-Link.com,2013-07-26 17:44:00,
2013-07-26 14:00:00,84.4,76.8,29.95,NE,45,2.2,-999.0,78,-99.99,,,0.00,Acu-Link.com,2013-07-26 18:00:00,
2013-07-26 14:15:00,84.9,74.8,29.95,ENE,67,3.2,-999.0,72,-99.99,,,0.00,Acu-Link.com,2013-07-26 18:15:00,
2013-07-26 14:30:00,83.5,74.7,29.95,NNE,22,1.7,-999.0,75,-99.99,,,0.00,Acu-Link.com,2013-07-26 18:30:00,
2013-07-26 14:45:00,85.6,69.1,29.95,NNE,22,2.2,-999.0,58,-99.99,,,0.00,Acu-Link.com,2013-07-26 18:45:00,
2013-07-26 15:00:00,85.5,71.0,29.95,East,90,2.7,-999.0,62,-99.99,,,0.00,Acu-Link.com,2013-07-26 19:00:00,
2013-07-26 15:15:00,86.7,68.0,29.94,ENE,67,2.2,-999.0,54,-99.99,,,0.00,Acu-Link.com,2013-07-26 19:15:00,
2013-07-26 15:30:00,83.5,69.1,29.94,NNE,22,2.2,-999.0,62,-99.99,,,0.00,Acu-Link.com,2013-07-26 19:30:00,
2013-07-26 15:45:00,85.6,68.1,29.94,NNE,22,2.7,-999.0,56,-99.99,,,0.00,Acu-Link.com,2013-07-26 19:45:00,
2013-07-26 16:00:00,85.6,70.1,29.94,SE,135,1.7,-999.0,60,-99.99,,,0.00,Acu-Link.com,2013-07-26 20:00:00,
2013-07-26 16:16:00,86.4,68.3,29.95,NE,45,2.7,-999.0,55,-99.99,,,0.00,Acu-Link.com,2013-07-26 20:16:00,
2013-07-26 16:31:00,86.2,65.9,29.94,ENE,67,2.7,-999.0,51,-99.99,,,0.00,Acu-Link.com,2013-07-26 20:31:00,
2013-07-26 16:46:00,85.3,67.8,29.96,NNE,22,1.7,-999.0,56,-99.99,,,0.00,Acu-Link.com,2013-07-26 20:46:00,
2013-07-26 17:46:00,85.6,65.9,29.94,NE,45,1.7,-999.0,52,-99.99,,,0.00,Acu-Link.com,2013-07-26 21:46:00,
2013-07-26 18:01:00,92.8,64.9,29.94,NNE,22,0.0,-999.0,40,-99.99,,,0.00,Acu-Link.com,2013-07-26 22:01:00,
2013-07-26 18:16:00,90.5,64.9,29.95,West,270,2.7,-999.0,43,-99.99,,,0.00,Acu-Link.com,2013-07-26 22:16:00,
2013-07-26 18:47:00,87.6,64.8,29.95,NNE,22,1.7,-999.0,47,-99.99,,,0.00,Acu-Link.com,2013-07-26 22:47:00,
2013-07-26 19:02:00,83.1,65.8,29.95,ESE,112,1.7,-999.0,56,-99.99,,,0.00,Acu-Link.com,2013-07-26 23:02:00,
2013-07-26 19:17:00,81.5,64.8,29.95,South,180,3.2,-999.0,57,-99.99,,,0.00,Acu-Link.com,2013-07-26 23:17:00,
2013-07-26 19:32:00,79.0,72.3,29.96,SSE,157,1.1,-999.0,80,-99.99,,,0.00,Acu-Link.com,2013-07-26 23:32:00,
2013-07-26 19:47:00,76.6,76.0,29.95,SSW,202,2.7,-999.0,98,-99.99,,,0.00,Acu-Link.com,2013-07-26 23:47:00,
2013-07-26 20:02:00,75.0,74.4,29.96,SSW,202,2.7,-999.0,98,-99.99,,,0.00,Acu-Link.com,2013-07-27 00:02:00,
2013-07-26 20:17:00,73.8,73.2,29.95,SSW,202,2.7,-999.0,98,-99.99,,,0.00,Acu-Link.com,2013-07-27 00:17:00,
2013-07-26 20:32:00,73.0,72.4,29.95,WSW,247,4.2,-999.0,98,-99.99,,,0.00,Acu-Link.com,2013-07-27 00:32:00,
2013-07-26 20:48:00,72.3,71.7,29.97,SSW,202,2.2,-999.0,98,-99.99,,,0.00,Acu-Link.com,2013-07-27 00:48:00,
2013-07-26 21:03:00,71.6,71.0,29.97,SSE,157,2.2,-999.0,98,-99.99,,,0.00,Acu-Link.com,2013-07-27 01:03:00,
2013-07-26 21:18:00,71.1,70.5,29.97,SW,225,3.7,-999.0,98,-99.99,,,0.00,Acu-Link.com,2013-07-27 01:18:00,
2013-07-26 21:33:00,70.9,70.3,29.97,South,180,2.7,-999.0,98,-99.99,,,0.00,Acu-Link.com,2013-07-27 01:33:00,
2013-07-26 21:48:00,70.5,69.9,29.99,South,180,3.2,-999.0,98,-99.99,,,0.00,Acu-Link.com,2013-07-27 01:48:00,
2013-07-26 22:03:00,69.8,69.2,29.98,SSW,202,3.2,-999.0,98,-99.99,,,0.00,Acu-Link.com,2013-07-27 02:03:00,
2013-07-26 22:18:00,69.4,68.8,29.99,SSE,157,2.7,-999.0,98,-99.99,,,0.00,Acu-Link.com,2013-07-27 02:18:00,
2013-07-26 22:33:00,69.4,68.8,29.99,SSW,202,4.7,-999.0,98,-99.99,,,0.00,Acu-Link.com,2013-07-27 02:33:00,
2013-07-26 22:48:00,69.4,68.8,29.99,SSW,202,3.7,-999.0,98,-99.99,,,0.00,Acu-Link.com,2013-07-27 02:48:00,
2013-07-26 23:04:00,69.3,68.7,29.99,SW,225,4.2,-999.0,98,-99.99,,,0.00,Acu-Link.com,2013-07-27 03:04:00,
2013-07-26 23:19:00,68.9,68.3,29.98,South,180,2.7,-999.0,98,-99.99,,,0.00,Acu-Link.com,2013-07-27 03:19:00,
2013-07-26 23:34:00,68.5,67.9,29.98,SSW,202,3.2,-999.0,98,-99.99,,,0.00,Acu-Link.com,2013-07-27 03:34:00,
2013-07-26 23:49:00,68.4,67.8,29.98,South,180,2.7,-999.0,98,-99.99,,,0.00,Acu-Link.com,2013-07-27 03:49:00,